contact:dominique.lefevre@mio.osupytheas.fr, maurice.libes@osupytheas.fr, didier.mallarino@osupytheas.fr
Project:EMSO http://www.emso-fr.org/EMSO-France
Depth: 2436.0 m
Title:EMSO Ligure Ouest : Data MII capteur OXYGEN
DateTime,Latitude,Longitude,Optode-Type,Optode_Serial,Oxygen,Saturation_Oxygen,Temperature
DateTime,Latitude,Longitude,Optode-Type,Optode_Serial,µmol.l-1,%,degC
2019-06-13T00:01:08,42.805,6.029,4330,1995,194.918,59.609,13.288
2019-06-13T00:04:08,42.805,6.029,4330,1995,194.934,59.613,13.288
2019-06-13T00:07:08,42.805,6.029,4330,1995,194.927,59.611,13.288
2019-06-13T00:10:08,42.805,6.029,4330,1995,194.875,59.595,13.288
2019-06-13T00:13:08,42.805,6.029,4330,1995,194.901,59.604,13.289
2019-06-13T00:16:08,42.805,6.029,4330,1995,194.931,59.613,13.288
2019-06-13T00:19:08,42.805,6.029,4330,1995,194.855,59.591,13.289
2019-06-13T00:22:08,42.805,6.029,4330,1995,194.843,59.586,13.288
2019-06-13T00:25:08,42.805,6.029,4330,1995,194.834,59.583,13.288
2019-06-13T00:28:08,42.805,6.029,4330,1995,194.850,59.589,13.289
2019-06-13T00:31:08,42.805,6.029,4330,1995,194.887,59.600,13.289
2019-06-13T00:34:08,42.805,6.029,4330,1995,194.955,59.622,13.289
2019-06-13T00:37:08,42.805,6.029,4330,1995,194.925,59.611,13.288
2019-06-13T00:40:08,42.805,6.029,4330,1995,194.908,59.607,13.289
2019-06-13T00:43:08,42.805,6.029,4330,1995,194.975,59.627,13.288
2019-06-13T00:46:08,42.805,6.029,4330,1995,195.021,59.641,13.289
2019-06-13T00:49:08,42.805,6.029,4330,1995,194.925,59.613,13.290
2019-06-13T00:52:08,42.805,6.029,4330,1995,194.924,59.612,13.289
2019-06-13T00:55:08,42.805,6.029,4330,1995,194.978,59.627,13.288
2019-06-13T00:58:08,42.805,6.029,4330,1995,195.010,59.638,13.289
2019-06-13T01:01:08,42.805,6.029,4330,1995,195.028,59.643,13.288
2019-06-13T01:04:08,42.805,6.029,4330,1995,195.048,59.649,13.288
2019-06-13T01:07:08,42.805,6.029,4330,1995,195.043,59.648,13.289
2019-06-13T01:10:08,42.805,6.029,4330,1995,194.998,59.633,13.288
2019-06-13T01:13:08,42.805,6.029,4330,1995,195.044,59.649,13.289
2019-06-13T01:16:08,42.805,6.029,4330,1995,195.088,59.662,13.289
2019-06-13T01:19:08,42.805,6.029,4330,1995,195.154,59.680,13.288
2019-06-13T01:22:08,42.805,6.029,4330,1995,195.133,59.674,13.288
2019-06-13T01:25:08,42.805,6.029,4330,1995,195.095,59.663,13.288
2019-06-13T01:28:08,42.805,6.029,4330,1995,195.152,59.680,13.288
2019-06-13T01:31:08,42.805,6.029,4330,1995,195.119,59.670,13.288
2019-06-13T01:34:08,42.805,6.029,4330,1995,195.100,59.664,13.288
2019-06-13T01:37:08,42.805,6.029,4330,1995,195.156,59.682,13.288
2019-06-13T01:40:08,42.805,6.029,4330,1995,195.172,59.686,13.287
2019-06-13T01:43:08,42.805,6.029,4330,1995,195.173,59.686,13.288
2019-06-13T01:46:08,42.805,6.029,4330,1995,195.130,59.673,13.288
2019-06-13T01:49:08,42.805,6.029,4330,1995,195.153,59.681,13.288
2019-06-13T01:52:08,42.805,6.029,4330,1995,195.100,59.665,13.288
2019-06-13T01:55:08,42.805,6.029,4330,1995,195.165,59.684,13.288
2019-06-13T01:58:08,42.805,6.029,4330,1995,195.174,59.687,13.288
2019-06-13T02:01:08,42.805,6.029,4330,1995,195.151,59.680,13.288
2019-06-13T02:04:08,42.805,6.029,4330,1995,195.211,59.698,13.288
2019-06-13T02:07:08,42.805,6.029,4330,1995,195.227,59.704,13.289
2019-06-13T02:10:08,42.805,6.029,4330,1995,195.145,59.678,13.288
2019-06-13T02:13:08,42.805,6.029,4330,1995,195.210,59.699,13.288
2019-06-13T02:16:08,42.805,6.029,4330,1995,195.206,59.697,13.289
2019-06-13T02:19:08,42.805,6.029,4330,1995,195.201,59.696,13.289
2019-06-13T02:22:08,42.805,6.029,4330,1995,195.269,59.716,13.288
2019-06-13T02:25:08,42.805,6.029,4330,1995,195.201,59.697,13.289
2019-06-13T02:28:08,42.805,6.029,4330,1995,195.188,59.693,13.289
2019-06-13T02:31:08,42.805,6.029,4330,1995,195.160,59.684,13.289
2019-06-13T02:34:08,42.805,6.029,4330,1995,195.075,59.658,13.289
2019-06-13T02:37:08,42.805,6.029,4330,1995,195.196,59.695,13.289
2019-06-13T02:40:08,42.805,6.029,4330,1995,195.155,59.683,13.290
2019-06-13T02:43:08,42.805,6.029,4330,1995,195.236,59.707,13.289
2019-06-13T02:46:08,42.805,6.029,4330,1995,195.179,59.689,13.289
2019-06-13T02:49:08,42.805,6.029,4330,1995,195.120,59.671,13.289
2019-06-13T02:52:08,42.805,6.029,4330,1995,195.124,59.673,13.289
2019-06-13T02:55:08,42.805,6.029,4330,1995,195.194,59.695,13.289
2019-06-13T02:58:08,42.805,6.029,4330,1995,195.148,59.681,13.289
2019-06-13T03:01:08,42.805,6.029,4330,1995,195.170,59.688,13.289
2019-06-13T03:04:08,42.805,6.029,4330,1995,195.117,59.672,13.290
2019-06-13T03:07:08,42.805,6.029,4330,1995,195.192,59.695,13.289
2019-06-13T03:10:08,42.805,6.029,4330,1995,195.150,59.680,13.289
2019-06-13T03:13:08,42.805,6.029,4330,1995,195.151,59.682,13.289
2019-06-13T03:16:08,42.805,6.029,4330,1995,195.139,59.677,13.288
2019-06-13T03:19:08,42.805,6.029,4330,1995,195.107,59.667,13.289
2019-06-13T03:22:08,42.805,6.029,4330,1995,195.114,59.670,13.289
2019-06-13T03:25:08,42.805,6.029,4330,1995,195.155,59.682,13.288
2019-06-13T03:28:08,42.805,6.029,4330,1995,195.113,59.668,13.288
2019-06-13T03:31:08,42.805,6.029,4330,1995,195.126,59.673,13.288
2019-06-13T03:34:08,42.805,6.029,4330,1995,195.146,59.678,13.288
2019-06-13T03:37:08,42.805,6.029,4330,1995,195.118,59.670,13.288
2019-06-13T03:40:08,42.805,6.029,4330,1995,195.108,59.667,13.288
2019-06-13T03:43:08,42.805,6.029,4330,1995,195.110,59.668,13.288
2019-06-13T03:46:08,42.805,6.029,4330,1995,195.146,59.679,13.288
2019-06-13T03:49:08,42.805,6.029,4330,1995,195.112,59.668,13.288
2019-06-13T03:52:08,42.805,6.029,4330,1995,195.153,59.680,13.287
2019-06-13T03:55:08,42.805,6.029,4330,1995,195.085,59.660,13.289
2019-06-13T03:58:08,42.805,6.029,4330,1995,195.190,59.692,13.288
2019-06-13T04:01:08,42.805,6.029,4330,1995,195.132,59.674,13.288
2019-06-13T04:04:08,42.805,6.029,4330,1995,195.169,59.686,13.288
2019-06-13T04:07:08,42.805,6.029,4330,1995,195.029,59.644,13.289
2019-06-13T04:10:08,42.805,6.029,4330,1995,195.146,59.679,13.289
2019-06-13T04:13:08,42.805,6.029,4330,1995,195.066,59.654,13.288
2019-06-13T04:16:08,42.805,6.029,4330,1995,195.026,59.642,13.288
2019-06-13T04:19:08,42.805,6.029,4330,1995,195.071,59.656,13.288
2019-06-13T04:22:08,42.805,6.029,4330,1995,195.084,59.660,13.288
2019-06-13T04:25:08,42.805,6.029,4330,1995,194.983,59.630,13.289
2019-06-13T04:28:08,42.805,6.029,4330,1995,194.970,59.627,13.290
2019-06-13T04:31:08,42.805,6.029,4330,1995,194.921,59.611,13.289
2019-06-13T04:34:08,42.805,6.029,4330,1995,194.899,59.605,13.289
2019-06-13T04:37:08,42.805,6.029,4330,1995,194.883,59.599,13.289
2019-06-13T04:40:08,42.805,6.029,4330,1995,194.948,59.620,13.290
2019-06-13T04:43:08,42.805,6.029,4330,1995,194.927,59.612,13.288
2019-06-13T04:46:08,42.805,6.029,4330,1995,194.959,59.623,13.289
2019-06-13T04:49:08,42.805,6.029,4330,1995,194.984,59.630,13.289
2019-06-13T04:52:08,42.805,6.029,4330,1995,194.956,59.622,13.289
2019-06-13T04:55:08,42.805,6.029,4330,1995,194.972,59.626,13.289
2019-06-13T04:58:08,42.805,6.029,4330,1995,194.951,59.620,13.289
2019-06-13T05:01:08,42.805,6.029,4330,1995,194.899,59.605,13.289
2019-06-13T05:04:08,42.805,6.029,4330,1995,194.863,59.593,13.289
2019-06-13T05:07:08,42.805,6.029,4330,1995,194.904,59.606,13.289
2019-06-13T05:10:08,42.805,6.029,4330,1995,194.918,59.610,13.289
2019-06-13T05:13:08,42.805,6.029,4330,1995,194.876,59.599,13.290
2019-06-13T05:16:08,42.805,6.029,4330,1995,194.912,59.609,13.290
2019-06-13T05:19:08,42.805,6.029,4330,1995,194.846,59.588,13.289
2019-06-13T05:22:08,42.805,6.029,4330,1995,194.814,59.579,13.290
2019-06-13T05:25:08,42.805,6.029,4330,1995,194.846,59.588,13.289
2019-06-13T05:28:08,42.805,6.029,4330,1995,194.825,59.582,13.289
2019-06-13T05:31:08,42.805,6.029,4330,1995,194.926,59.613,13.290
2019-06-13T05:34:08,42.805,6.029,4330,1995,194.809,59.577,13.289
2019-06-13T05:37:08,42.805,6.029,4330,1995,194.845,59.587,13.289
2019-06-13T05:40:08,42.805,6.029,4330,1995,194.941,59.616,13.288
2019-06-13T05:43:08,42.805,6.029,4330,1995,194.998,59.633,13.288
2019-06-13T05:46:08,42.805,6.029,4330,1995,194.926,59.611,13.288
2019-06-13T05:49:08,42.805,6.029,4330,1995,194.954,59.620,13.288
2019-06-13T05:52:08,42.805,6.029,4330,1995,195.006,59.636,13.288
2019-06-13T05:55:08,42.805,6.029,4330,1995,195.031,59.643,13.288
2019-06-13T05:58:08,42.805,6.029,4330,1995,195.000,59.633,13.288
2019-06-13T06:01:08,42.805,6.029,4330,1995,194.991,59.632,13.288
2019-06-13T06:04:08,42.805,6.029,4330,1995,195.057,59.651,13.288
2019-06-13T06:07:08,42.805,6.029,4330,1995,195.029,59.643,13.288
2019-06-13T06:10:08,42.805,6.029,4330,1995,195.036,59.645,13.288
2019-06-13T06:13:08,42.805,6.029,4330,1995,195.032,59.644,13.289
2019-06-13T06:16:08,42.805,6.029,4330,1995,195.026,59.642,13.288
2019-06-13T06:19:08,42.805,6.029,4330,1995,195.014,59.638,13.288
2019-06-13T06:22:08,42.805,6.029,4330,1995,194.982,59.629,13.288
2019-06-13T06:25:08,42.805,6.029,4330,1995,194.970,59.625,13.288
2019-06-13T06:28:08,42.805,6.029,4330,1995,195.011,59.638,13.289
2019-06-13T06:31:08,42.805,6.029,4330,1995,194.994,59.633,13.289
2019-06-13T06:34:08,42.805,6.029,4330,1995,194.972,59.626,13.288
2019-06-13T06:37:08,42.805,6.029,4330,1995,194.978,59.628,13.289
2019-06-13T06:40:08,42.805,6.029,4330,1995,195.022,59.641,13.288
2019-06-13T06:43:08,42.805,6.029,4330,1995,195.008,59.638,13.289
2019-06-13T06:46:08,42.805,6.029,4330,1995,194.982,59.630,13.289
2019-06-13T06:49:08,42.805,6.029,4330,1995,195.029,59.644,13.289
2019-06-13T06:52:08,42.805,6.029,4330,1995,195.019,59.641,13.289
2019-06-13T06:55:08,42.805,6.029,4330,1995,195.016,59.641,13.290
2019-06-13T06:58:08,42.805,6.029,4330,1995,195.029,59.645,13.290
2019-06-13T07:01:08,42.805,6.029,4330,1995,194.977,59.630,13.290
2019-06-13T07:04:08,42.805,6.029,4330,1995,195.009,59.638,13.289
2019-06-13T07:07:08,42.805,6.029,4330,1995,195.016,59.641,13.290
2019-06-13T07:10:08,42.805,6.029,4330,1995,195.045,59.649,13.289
2019-06-13T07:13:08,42.805,6.029,4330,1995,195.038,59.648,13.290
2019-06-13T07:16:08,42.805,6.029,4330,1995,194.979,59.629,13.289
2019-06-13T07:19:08,42.805,6.029,4330,1995,195.010,59.639,13.290
2019-06-13T07:22:08,42.805,6.029,4330,1995,194.992,59.633,13.289
2019-06-13T07:25:08,42.805,6.029,4330,1995,195.038,59.648,13.290
2019-06-13T07:28:08,42.805,6.029,4330,1995,195.046,59.649,13.289
2019-06-13T07:31:08,42.805,6.029,4330,1995,195.081,59.661,13.290
2019-06-13T07:34:08,42.805,6.029,4330,1995,195.029,59.644,13.289
2019-06-13T07:37:08,42.805,6.029,4330,1995,195.093,59.665,13.290
2019-06-13T07:40:08,42.805,6.029,4330,1995,195.073,59.657,13.289
2019-06-13T07:43:08,42.805,6.029,4330,1995,195.132,59.675,13.289
2019-06-13T07:46:08,42.805,6.029,4330,1995,195.084,59.660,13.289
2019-06-13T07:49:08,42.805,6.029,4330,1995,195.153,59.681,13.289
2019-06-13T07:52:08,42.805,6.029,4330,1995,195.104,59.666,13.288
2019-06-13T07:55:08,42.805,6.029,4330,1995,195.097,59.663,13.288
2019-06-13T07:58:08,42.805,6.029,4330,1995,195.071,59.655,13.288
2019-06-13T08:01:08,42.805,6.029,4330,1995,195.101,59.664,13.288
2019-06-13T08:04:08,42.805,6.029,4330,1995,195.108,59.667,13.288
2019-06-13T08:07:08,42.805,6.029,4330,1995,195.109,59.667,13.288
2019-06-13T08:10:08,42.805,6.029,4330,1995,195.056,59.651,13.288
2019-06-13T08:13:08,42.805,6.029,4330,1995,195.099,59.664,13.288
2019-06-13T08:16:08,42.805,6.029,4330,1995,195.109,59.667,13.288
2019-06-13T08:19:08,42.805,6.029,4330,1995,195.043,59.647,13.288
2019-06-13T08:22:08,42.805,6.029,4330,1995,195.073,59.657,13.289
2019-06-13T08:25:08,42.805,6.029,4330,1995,195.111,59.668,13.288
2019-06-13T08:28:08,42.805,6.029,4330,1995,195.051,59.650,13.289
2019-06-13T08:31:08,42.805,6.029,4330,1995,195.076,59.657,13.288
2019-06-13T08:34:08,42.805,6.029,4330,1995,195.067,59.655,13.288
2019-06-13T08:37:08,42.805,6.029,4330,1995,195.104,59.666,13.288
2019-06-13T08:40:08,42.805,6.029,4330,1995,195.100,59.665,13.289
2019-06-13T08:43:08,42.805,6.029,4330,1995,195.078,59.659,13.289
2019-06-13T08:46:08,42.805,6.029,4330,1995,195.106,59.668,13.289
2019-06-13T08:49:08,42.805,6.029,4330,1995,195.062,59.653,13.288
2019-06-13T08:52:08,42.805,6.029,4330,1995,195.093,59.664,13.289
2019-06-13T08:55:08,42.805,6.029,4330,1995,195.064,59.654,13.289
2019-06-13T08:58:08,42.805,6.029,4330,1995,195.111,59.668,13.289
2019-06-13T09:01:08,42.805,6.029,4330,1995,195.107,59.668,13.289
2019-06-13T09:04:08,42.805,6.029,4330,1995,195.066,59.655,13.289
2019-06-13T09:07:08,42.805,6.029,4330,1995,195.084,59.661,13.289
2019-06-13T09:10:08,42.805,6.029,4330,1995,195.067,59.656,13.289
2019-06-13T09:13:08,42.805,6.029,4330,1995,195.106,59.667,13.289
2019-06-13T09:16:08,42.805,6.029,4330,1995,195.104,59.667,13.289
2019-06-13T09:19:08,42.805,6.029,4330,1995,195.097,59.664,13.289
2019-06-13T09:22:08,42.805,6.029,4330,1995,195.064,59.656,13.290
2019-06-13T09:25:08,42.805,6.029,4330,1995,195.118,59.672,13.289
2019-06-13T09:28:08,42.805,6.029,4330,1995,195.116,59.670,13.289
2019-06-13T09:31:08,42.805,6.029,4330,1995,195.149,59.682,13.290
2019-06-13T09:34:08,42.805,6.029,4330,1995,195.137,59.677,13.289
2019-06-13T09:37:08,42.805,6.029,4330,1995,195.074,59.658,13.289
2019-06-13T09:40:08,42.805,6.029,4330,1995,195.110,59.669,13.290
2019-06-13T09:46:08,42.805,6.029,4330,1995,195.049,59.650,13.289
2019-06-13T09:49:08,42.805,6.029,4330,1995,195.069,59.656,13.289
2019-06-13T09:52:08,42.805,6.029,4330,1995,195.083,59.661,13.289
2019-06-13T09:55:08,42.805,6.029,4330,1995,195.095,59.665,13.289
2019-06-13T09:58:08,42.805,6.029,4330,1995,195.074,59.658,13.289
2019-06-13T10:01:08,42.805,6.029,4330,1995,195.018,59.640,13.289
2019-06-13T10:04:08,42.805,6.029,4330,1995,194.988,59.631,13.288
2019-06-13T10:07:08,42.805,6.029,4330,1995,195.070,59.655,13.288
2019-06-13T10:10:08,42.805,6.029,4330,1995,195.032,59.643,13.288
2019-06-13T10:13:08,42.805,6.029,4330,1995,195.030,59.643,13.288
2019-06-13T10:16:08,42.805,6.029,4330,1995,195.076,59.657,13.288
2019-06-13T10:19:08,42.805,6.029,4330,1995,195.084,59.659,13.288
2019-06-13T10:22:08,42.805,6.029,4330,1995,195.025,59.642,13.288
2019-06-13T10:25:08,42.805,6.029,4330,1995,195.041,59.647,13.289
2019-06-13T10:28:08,42.805,6.029,4330,1995,195.035,59.645,13.288
2019-06-13T10:31:08,42.805,6.029,4330,1995,195.028,59.643,13.288
2019-06-13T10:34:08,42.805,6.029,4330,1995,195.046,59.648,13.288
2019-06-13T10:37:08,42.805,6.029,4330,1995,194.981,59.629,13.289
2019-06-13T10:40:08,42.805,6.029,4330,1995,195.030,59.643,13.288
2019-06-13T10:43:08,42.805,6.029,4330,1995,195.000,59.635,13.289
2019-06-13T10:46:08,42.805,6.029,4330,1995,195.017,59.640,13.289
2019-06-13T10:49:08,42.805,6.029,4330,1995,195.108,59.667,13.288
2019-06-13T10:52:08,42.805,6.029,4330,1995,195.000,59.635,13.289
2019-06-13T10:55:08,42.805,6.029,4330,1995,195.006,59.637,13.289
2019-06-13T10:58:08,42.805,6.029,4330,1995,195.027,59.643,13.289
2019-06-13T11:01:08,42.805,6.029,4330,1995,195.015,59.640,13.289
2019-06-13T11:04:08,42.805,6.029,4330,1995,195.084,59.661,13.289
2019-06-13T11:07:08,42.805,6.029,4330,1995,195.015,59.639,13.289
2019-06-13T11:10:08,42.805,6.029,4330,1995,195.063,59.654,13.289
2019-06-13T11:13:08,42.805,6.029,4330,1995,195.034,59.645,13.289
2019-06-13T11:16:08,42.805,6.029,4330,1995,195.005,59.636,13.289
2019-06-13T11:19:08,42.805,6.029,4330,1995,194.995,59.635,13.290
2019-06-13T11:22:08,42.805,6.029,4330,1995,194.992,59.634,13.290
2019-06-13T11:25:08,42.805,6.029,4330,1995,195.008,59.638,13.289
2019-06-13T11:28:08,42.805,6.029,4330,1995,195.020,59.642,13.290
2019-06-13T11:31:08,42.805,6.029,4330,1995,194.976,59.628,13.289
2019-06-13T11:34:08,42.805,6.029,4330,1995,194.923,59.612,13.289
2019-06-13T11:37:08,42.805,6.029,4330,1995,194.940,59.617,13.289
2019-06-13T11:40:08,42.805,6.029,4330,1995,194.950,59.620,13.289
2019-06-13T11:43:08,42.805,6.029,4330,1995,194.940,59.617,13.289
2019-06-13T11:46:08,42.805,6.029,4330,1995,194.956,59.621,13.289
2019-06-13T11:49:08,42.805,6.029,4330,1995,194.944,59.618,13.289
2019-06-13T11:52:08,42.805,6.029,4330,1995,194.951,59.621,13.289
2019-06-13T11:55:08,42.805,6.029,4330,1995,194.909,59.607,13.289
2019-06-13T11:58:08,42.805,6.029,4330,1995,194.921,59.610,13.289
2019-06-13T12:01:08,42.805,6.029,4330,1995,194.945,59.618,13.289
2019-06-13T12:04:08,42.805,6.029,4330,1995,194.934,59.615,13.289
2019-06-13T12:07:08,42.805,6.029,4330,1995,194.969,59.625,13.289
2019-06-13T12:10:08,42.805,6.029,4330,1995,194.938,59.615,13.288
2019-06-13T12:13:08,42.805,6.029,4330,1995,194.941,59.616,13.288
2019-06-13T12:16:08,42.805,6.029,4330,1995,195.022,59.641,13.288
2019-06-13T12:19:08,42.805,6.029,4330,1995,194.965,59.623,13.288
2019-06-13T12:22:08,42.805,6.029,4330,1995,195.002,59.634,13.288
2019-06-13T12:25:08,42.805,6.029,4330,1995,194.982,59.628,13.288
2019-06-13T12:28:08,42.805,6.029,4330,1995,194.973,59.626,13.288
2019-06-13T12:31:08,42.805,6.029,4330,1995,195.004,59.636,13.288
2019-06-13T12:34:08,42.805,6.029,4330,1995,195.029,59.643,13.288
2019-06-13T12:37:08,42.805,6.029,4330,1995,194.989,59.631,13.288
2019-06-13T12:40:08,42.805,6.029,4330,1995,195.069,59.655,13.288
2019-06-13T12:43:08,42.805,6.029,4330,1995,195.008,59.637,13.289
2019-06-13T12:46:08,42.805,6.029,4330,1995,194.984,59.629,13.288
2019-06-13T12:49:08,42.805,6.029,4330,1995,195.017,59.640,13.289
2019-06-13T12:52:08,42.805,6.029,4330,1995,195.013,59.638,13.289
2019-06-13T12:55:08,42.805,6.029,4330,1995,195.026,59.642,13.288
2019-06-13T12:58:08,42.805,6.029,4330,1995,195.065,59.655,13.289
2019-06-13T13:01:08,42.805,6.029,4330,1995,195.013,59.638,13.288
2019-06-13T13:04:08,42.805,6.029,4330,1995,194.981,59.628,13.288
2019-06-13T13:07:08,42.805,6.029,4330,1995,195.005,59.636,13.289
2019-06-13T13:10:08,42.805,6.029,4330,1995,195.055,59.651,13.289
2019-06-13T13:13:08,42.805,6.029,4330,1995,194.978,59.628,13.289
2019-06-13T13:16:08,42.805,6.029,4330,1995,195.085,59.661,13.289
2019-06-13T13:19:08,42.805,6.029,4330,1995,195.068,59.656,13.289
2019-06-13T13:22:08,42.805,6.029,4330,1995,195.016,59.640,13.289
2019-06-13T13:25:08,42.805,6.029,4330,1995,195.057,59.652,13.289
2019-06-13T13:28:08,42.805,6.029,4330,1995,194.992,59.633,13.289
2019-06-13T13:31:08,42.805,6.029,4330,1995,194.978,59.629,13.290
2019-06-13T13:34:08,42.805,6.029,4330,1995,195.066,59.655,13.289
2019-06-13T13:37:08,42.805,6.029,4330,1995,194.960,59.623,13.290
2019-06-13T13:40:08,42.805,6.029,4330,1995,195.041,59.647,13.289
2019-06-13T13:43:08,42.805,6.029,4330,1995,195.007,59.638,13.289
2019-06-13T13:46:08,42.805,6.029,4330,1995,195.050,59.651,13.289
2019-06-13T13:49:08,42.805,6.029,4330,1995,195.062,59.654,13.289
2019-06-13T13:52:08,42.805,6.029,4330,1995,195.068,59.655,13.289
2019-06-13T13:55:08,42.805,6.029,4330,1995,195.062,59.654,13.289
2019-06-13T13:58:08,42.805,6.029,4330,1995,195.072,59.657,13.289
2019-06-13T14:01:08,42.805,6.029,4330,1995,195.054,59.651,13.288
2019-06-13T14:04:08,42.805,6.029,4330,1995,195.095,59.664,13.289
2019-06-13T14:07:08,42.805,6.029,4330,1995,195.073,59.657,13.289
2019-06-13T14:10:08,42.805,6.029,4330,1995,195.049,59.650,13.289
2019-06-13T14:13:08,42.805,6.029,4330,1995,195.013,59.639,13.289
2019-06-13T14:16:07,42.805,6.029,4330,1995,195.002,59.635,13.288
2019-06-13T14:19:08,42.805,6.029,4330,1995,195.047,59.649,13.288
2019-06-13T14:22:08,42.805,6.029,4330,1995,195.021,59.640,13.288
2019-06-13T14:25:07,42.805,6.029,4330,1995,195.011,59.636,13.288
2019-06-13T14:28:08,42.805,6.029,4330,1995,195.093,59.662,13.288
2019-06-13T14:31:08,42.805,6.029,4330,1995,195.053,59.650,13.288
2019-06-13T14:34:08,42.805,6.029,4330,1995,195.040,59.646,13.288
2019-06-13T14:37:08,42.805,6.029,4330,1995,195.038,59.645,13.288
2019-06-13T14:40:08,42.805,6.029,4330,1995,195.006,59.636,13.288
2019-06-13T14:43:07,42.805,6.029,4330,1995,195.081,59.658,13.288
2019-06-13T14:46:08,42.805,6.029,4330,1995,195.086,59.659,13.288
2019-06-13T14:49:08,42.805,6.029,4330,1995,195.047,59.648,13.288
2019-06-13T14:52:08,42.805,6.029,4330,1995,195.082,59.659,13.288
2019-06-13T14:55:08,42.805,6.029,4330,1995,195.088,59.661,13.288
2019-06-13T14:58:07,42.805,6.029,4330,1995,195.124,59.672,13.288
2019-06-13T15:01:08,42.805,6.029,4330,1995,195.057,59.652,13.288
2019-06-13T15:04:07,42.805,6.029,4330,1995,195.132,59.674,13.288
2019-06-13T15:07:07,42.805,6.029,4330,1995,195.049,59.649,13.288
2019-06-13T15:10:07,42.805,6.029,4330,1995,195.025,59.643,13.289
2019-06-13T15:13:07,42.805,6.029,4330,1995,195.090,59.662,13.288
2019-06-13T15:16:08,42.805,6.029,4330,1995,195.082,59.659,13.288
2019-06-13T15:19:08,42.805,6.029,4330,1995,195.105,59.666,13.288
2019-06-13T15:22:08,42.805,6.029,4330,1995,195.078,59.658,13.288
2019-06-13T15:25:08,42.805,6.029,4330,1995,195.052,59.650,13.288
2019-06-13T15:28:07,42.805,6.029,4330,1995,195.160,59.683,13.289
2019-06-13T15:31:07,42.805,6.029,4330,1995,195.121,59.672,13.289
2019-06-13T15:34:07,42.805,6.029,4330,1995,195.154,59.682,13.289
2019-06-13T15:37:07,42.805,6.029,4330,1995,195.088,59.662,13.289
2019-06-13T15:40:07,42.805,6.029,4330,1995,195.161,59.683,13.288
2019-06-13T15:43:07,42.805,6.029,4330,1995,195.111,59.669,13.289
2019-06-13T15:46:07,42.805,6.029,4330,1995,195.133,59.675,13.289
2019-06-13T15:49:07,42.805,6.029,4330,1995,195.125,59.673,13.289
2019-06-13T15:52:07,42.805,6.029,4330,1995,195.065,59.657,13.291
2019-06-13T15:55:07,42.805,6.029,4330,1995,195.118,59.671,13.289
2019-06-13T15:58:07,42.805,6.029,4330,1995,195.110,59.669,13.289
2019-06-13T16:01:07,42.805,6.029,4330,1995,195.111,59.669,13.289
2019-06-13T16:04:07,42.805,6.029,4330,1995,195.071,59.658,13.290
2019-06-13T16:07:07,42.805,6.029,4330,1995,195.088,59.662,13.289
2019-06-13T16:10:07,42.805,6.029,4330,1995,195.031,59.644,13.289
2019-06-13T16:13:07,42.805,6.029,4330,1995,195.042,59.648,13.289
2019-06-13T16:16:07,42.805,6.029,4330,1995,195.091,59.662,13.288
2019-06-13T16:19:07,42.805,6.029,4330,1995,195.021,59.641,13.289
2019-06-13T16:22:07,42.805,6.029,4330,1995,195.064,59.655,13.289
2019-06-13T16:25:07,42.805,6.029,4330,1995,195.053,59.651,13.289
2019-06-13T16:28:07,42.805,6.029,4330,1995,195.037,59.645,13.288
2019-06-13T16:31:07,42.805,6.029,4330,1995,195.026,59.642,13.288
2019-06-13T16:34:07,42.805,6.029,4330,1995,195.073,59.657,13.289
2019-06-13T16:37:07,42.805,6.029,4330,1995,195.074,59.656,13.288
2019-06-13T16:40:07,42.805,6.029,4330,1995,195.062,59.653,13.288
2019-06-13T16:43:07,42.805,6.029,4330,1995,195.009,59.636,13.288
2019-06-13T16:46:07,42.805,6.029,4330,1995,195.068,59.654,13.288
2019-06-13T16:49:07,42.805,6.029,4330,1995,195.119,59.670,13.288
2019-06-13T16:52:07,42.805,6.029,4330,1995,195.036,59.644,13.288
2019-06-13T16:55:07,42.805,6.029,4330,1995,195.045,59.648,13.288
2019-06-13T16:58:07,42.805,6.029,4330,1995,195.038,59.645,13.288
2019-06-13T17:01:07,42.805,6.029,4330,1995,195.053,59.650,13.288
2019-06-13T17:04:07,42.805,6.029,4330,1995,195.022,59.641,13.288
2019-06-13T17:07:07,42.805,6.029,4330,1995,195.049,59.649,13.288
2019-06-13T17:10:07,42.805,6.029,4330,1995,195.059,59.652,13.288
2019-06-13T17:13:07,42.805,6.029,4330,1995,195.058,59.652,13.288
2019-06-13T17:16:07,42.805,6.029,4330,1995,195.067,59.654,13.288
2019-06-13T17:19:07,42.805,6.029,4330,1995,195.071,59.655,13.288
2019-06-13T17:22:07,42.805,6.029,4330,1995,195.061,59.653,13.288
2019-06-13T17:25:07,42.805,6.029,4330,1995,195.095,59.663,13.288
2019-06-13T17:28:07,42.805,6.029,4330,1995,195.045,59.648,13.288
2019-06-13T17:31:07,42.805,6.029,4330,1995,195.042,59.647,13.288
2019-06-13T17:34:07,42.805,6.029,4330,1995,195.021,59.641,13.288
2019-06-13T17:37:07,42.805,6.029,4330,1995,195.065,59.655,13.289
2019-06-13T17:40:07,42.805,6.029,4330,1995,195.078,59.659,13.289
2019-06-13T17:43:07,42.805,6.029,4330,1995,195.021,59.642,13.289
2019-06-13T17:46:07,42.805,6.029,4330,1995,195.088,59.662,13.289
2019-06-13T17:49:07,42.805,6.029,4330,1995,195.043,59.649,13.289
2019-06-13T17:52:07,42.805,6.029,4330,1995,195.046,59.649,13.289
2019-06-13T17:55:07,42.805,6.029,4330,1995,195.041,59.647,13.289
2019-06-13T17:58:07,42.805,6.029,4330,1995,195.030,59.645,13.290
2019-06-13T18:01:07,42.805,6.029,4330,1995,195.020,59.642,13.289
2019-06-13T18:04:07,42.805,6.029,4330,1995,195.021,59.642,13.289
2019-06-13T18:07:07,42.805,6.029,4330,1995,195.007,59.637,13.289
2019-06-13T18:10:07,42.805,6.029,4330,1995,194.992,59.633,13.289